| time (UTC) | temp C | wind direction | speed KPH | gust KPH | rain 1hr cm | rain 24hr cm | rain mn cm | humidity % | barometer mb |
| 20260506151003 | 5 | 355 | 3.2 | 9.7 | 0.05 | 3.23 | 2.18 | 66 | 1007.7 |
| 20260506150503 | 5 | 4 | 3.2 | 8.0 | 0.05 | 3.23 | 2.18 | 66 | 1007.7 |
| 20260506150003 | 5 | 19 | 1.6 | 6.4 | 0.05 | 3.23 | 2.18 | 66 | 1007.6 |
| 20260506145503 | 5 | 12 | 1.6 | 6.4 | 0.05 | 3.23 | 2.18 | 66 | 1007.6 |
| 20260506145003 | 5 | 7 | 3.2 | 9.7 | 0.05 | 3.23 | 2.18 | 66 | 1007.4 |
| 20260506144503 | 5 | 10 | 4.8 | 9.7 | 0.05 | 3.23 | 2.18 | 66 | 1007.3 |
| 20260506144003 | 5 | 22 | 4.8 | 11.3 | 0.03 | 3.20 | 2.16 | 66 | 1007.2 |
| 20260506143503 | 5 | 29 | 3.2 | 11.3 | 0.03 | 3.20 | 2.16 | 66 | 1007.0 |
| 20260506143214 | 5 | 28 | 4.8 | 11.3 | 0.03 | 3.20 | 2.16 | 66 | 1007.1 |
| 20260506142503 | 5 | 32 | 4.8 | 11.3 | 0.05 | 3.20 | 2.16 | 66 | 1007.0 |
| 20260506142003 | 5 | 25 | 4.8 | 12.9 | 0.05 | 3.20 | 2.16 | 66 | 1007.0 |
| 20260506141503 | 5 | 2 | 6.4 | 14.5 | 0.03 | 3.17 | 2.16 | 66 | 1007.1 |
| 20260506141003 | 5 | 1 | 8.0 | 16.1 | 0.03 | 3.17 | 2.13 | 66 | 1006.9 |
| 20260506140713 | 5 | 1 | 8.0 | 16.1 | 0.03 | 3.17 | 2.13 | 66 | 1007.1 |
| 20260506140003 | 5 | 4 | 6.4 | 14.5 | 0.03 | 3.17 | 2.13 | 66 | 1007.1 |
| 20260506135503 | 5 | 6 | 6.4 | 12.9 | 0.05 | 3.17 | 2.13 | 66 | 1007.1 |
| 20260506135003 | 5 | 6 | 6.4 | 12.9 | 0.05 | 3.17 | 2.13 | 65 | 1007.0 |
| 20260506134503 | 5 | 14 | 4.8 | 12.9 | 0.05 | 3.17 | 2.13 | 66 | 1007.3 |
| 20260506134003 | 5 | 21 | 4.8 | 11.3 | 0.05 | 3.17 | 2.13 | 66 | 1007.2 |
| 20260506133503 | 5 | 11 | 3.2 | 11.3 | 0.08 | 3.17 | 2.13 | 66 | 1007.2 |
| 20260506133003 | 5 | 7 | 4.8 | 12.9 | 0.10 | 3.17 | 2.13 | 66 | 1007.2 |
| 20260506132503 | 5 | 8 | 4.8 | 12.9 | 0.10 | 3.15 | 2.11 | 66 | 1007.1 |
| 20260506132003 | 5 | 2 | 6.4 | 12.9 | 0.10 | 3.15 | 2.11 | 66 | 1007.1 |
| 20260506131503 | 5 | 357 | 6.4 | 16.1 | 0.13 | 3.15 | 2.11 | 66 | 1007.1 |
| 20260506131003 | 5 | 357 | 4.8 | 16.1 | 0.15 | 3.15 | 2.11 | 66 | 1007.2 |
| 20260506130503 | 5 | 357 | 6.4 | 16.1 | 0.20 | 3.15 | 2.11 | 66 | 1007.2 |
| 20260506130214 | 5 | 357 | 6.4 | 17.7 | 0.23 | 3.15 | 2.11 | 66 | 1007.2 |
| 20260506125503 | 5 | 354 | 8.0 | 17.7 | 0.25 | 3.12 | 2.08 | 66 | 1007.2 |
| 20260506125003 | 5 | 351 | 6.4 | 17.7 | 0.25 | 3.12 | 2.08 | 66 | 1007.2 |
| 20260506124503 | 5 | 348 | 6.4 | 14.5 | 0.28 | 3.12 | 2.08 | 66 | 1007.3 |
| 20260506124003 | 5 | 345 | 6.4 | 16.1 | 0.30 | 3.12 | 2.08 | 66 | 1007.4 |
| 20260506123503 | 5 | 350 | 6.4 | 16.1 | 0.30 | 3.10 | 2.06 | 66 | 1007.2 |
| 20260506123003 | 5 | 354 | 4.8 | 12.9 | 0.30 | 3.07 | 2.03 | 65 | 1007.4 |
| 20260506122503 | 5 | 350 | 4.8 | 14.5 | 0.28 | 3.05 | 2.03 | 65 | 1007.7 |
| 20260506122003 | 5 | 349 | 6.4 | 16.1 | 0.30 | 3.05 | 2.01 | 65 | 1007.6 |
| 20260506121503 | 5 | 350 | 8.0 | 17.7 | 0.30 | 3.02 | 1.98 | 65 | 1007.5 |
| 20260506121003 | 5 | 355 | 9.7 | 19.3 | 0.28 | 3.00 | 1.96 | 65 | 1007.3 |
| 20260506120503 | 5 | 358 | 11.3 | 25.7 | 0.23 | 2.95 | 1.91 | 65 | 1007.5 |
| 20260506120003 | 5 | 358 | 11.3 | 25.7 | 0.20 | 2.90 | 1.85 | 65 | 1007.3 |
| 20260506115503 | 5 | 4 | 11.3 | 22.5 | 0.20 | 2.87 | 1.83 | 65 | 1007.2 |
| 20260506115003 | 5 | 11 | 11.3 | 22.5 | 0.20 | 2.87 | 1.83 | 65 | 1006.9 |
| 20260506114503 | 5 | 8 | 9.7 | 17.7 | 0.20 | 2.84 | 1.80 | 65 | 1006.9 |
| 20260506114213 | 5 | 5 | 9.7 | 19.3 | 0.20 | 2.82 | 1.78 | 65 | 1006.8 |
| 20260506113503 | 5 | 10 | 11.3 | 24.1 | 0.20 | 2.79 | 1.75 | 65 | 1006.7 |
| 20260506113003 | 5 | 5 | 12.9 | 24.1 | 0.20 | 2.77 | 1.73 | 65 | 1006.7 |
| 20260506112503 | 5 | 359 | 12.9 | 25.7 | 0.20 | 2.77 | 1.73 | 65 | 1006.7 |
| 20260506112213 | 5 | 360 | 11.3 | 25.7 | 0.20 | 2.74 | 1.70 | 65 | 1006.7 |
| 20260506111503 | 5 | 5 | 11.3 | 22.5 | 0.20 | 2.72 | 1.68 | 65 | 1006.7 |
| 20260506111003 | 5 | 5 | 12.9 | 24.1 | 0.23 | 2.72 | 1.68 | 65 | 1006.8 |
| 20260506110503 | 5 | 1 | 12.9 | 25.7 | 0.28 | 2.72 | 1.68 | 65 | 1006.9 |
| 20260506110003 | 5 | 356 | 11.3 | 25.7 | 0.28 | 2.69 | 1.65 | 65 | 1006.7 |
| 20260506105503 | 5 | 355 | 11.3 | 22.5 | 0.28 | 2.67 | 1.63 | 65 | 1006.7 |
| 20260506105003 | 5 | 4 | 11.3 | 22.5 | 0.33 | 2.67 | 1.63 | 65 | 1006.8 |
| 20260506104503 | 5 | 8 | 12.9 | 24.1 | 0.33 | 2.64 | 1.60 | 65 | 1006.7 |
| 20260506104003 | 5 | 3 | 12.9 | 24.1 | 0.33 | 2.62 | 1.57 | 65 | 1006.9 |
| 20260506103503 | 5 | 3 | 12.9 | 25.7 | 0.33 | 2.59 | 1.55 | 65 | 1006.8 |
| 20260506103003 | 5 | 6 | 12.9 | 25.7 | 0.33 | 2.57 | 1.52 | 65 | 1006.9 |
| 20260506102503 | 6 | 11 | 11.3 | 22.5 | 0.36 | 2.57 | 1.52 | 65 | 1006.9 |
| 20260506102213 | 6 | 13 | 9.7 | 20.9 | 0.36 | 2.54 | 1.50 | 65 | 1006.9 |
| 20260506101503 | 6 | 10 | 11.3 | 19.3 | 0.41 | 2.51 | 1.47 | 65 | 1006.8 |
| 20260506101003 | 6 | 6 | 11.3 | 19.3 | 0.38 | 2.49 | 1.45 | 65 | 1007.0 |
| 20260506100503 | 6 | 6 | 11.3 | 19.3 | 0.36 | 2.44 | 1.40 | 65 | 1007.0 |
| 20260506100004 | 6 | 8 | 9.7 | 19.3 | 0.33 | 2.41 | 1.37 | 65 | 1006.8 |
| 20260506095503 | 6 | 4 | 11.3 | 24.1 | 0.33 | 2.39 | 1.35 | 65 | 1006.7 |
| 20260506095212 | 6 | 3 | 9.7 | 24.1 | 0.33 | 2.36 | 1.32 | 65 | 1006.6 |
| 20260506094503 | 6 | 9 | 8.0 | 20.9 | 0.30 | 2.31 | 1.27 | 65 | 1006.7 |
| 20260506094003 | 6 | 12 | 9.7 | 17.7 | 0.30 | 2.29 | 1.24 | 65 | 1006.7 |
| 20260506093503 | 6 | 14 | 8.0 | 17.7 | 0.28 | 2.26 | 1.22 | 65 | 1006.8 |
| 20260506093004 | 6 | 17 | 6.4 | 16.1 | 0.28 | 2.24 | 1.19 | 65 | 1006.6 |
| 20260506092503 | 6 | 17 | 8.0 | 16.1 | 0.25 | 2.21 | 1.17 | 65 | 1006.7 |
| 20260506092003 | 6 | 5 | 9.7 | 20.9 | 0.23 | 2.16 | 1.12 | 65 | 1006.6 |
| 20260506091503 | 6 | 358 | 11.3 | 22.5 | 0.20 | 2.11 | 1.07 | 65 | 1006.6 |
| 20260506091003 | 6 | 358 | 9.7 | 22.5 | 0.20 | 2.11 | 1.07 | 65 | 1006.4 |
| 20260506090503 | 6 | 359 | 9.7 | 19.3 | 0.20 | 2.08 | 1.04 | 65 | 1006.6 |
| 20260506090003 | 6 | 360 | 9.7 | 19.3 | 0.23 | 2.08 | 1.04 | 65 | 1006.7 |
| 20260506085503 | 6 | 9 | 8.0 | 19.3 | 0.23 | 2.06 | 1.02 | 65 | 1006.8 |
| 20260506085003 | 7 | 9 | 8.0 | 19.3 | 0.23 | 2.03 | 0.99 | 65 | 1006.9 |
| 20260506084503 | 7 | 5 | 8.0 | 19.3 | 0.23 | 2.01 | 0.97 | 65 | 1006.7 |
| 20260506084003 | 7 | 7 | 8.0 | 17.7 | 0.25 | 1.98 | 0.94 | 65 | 1006.9 |
| 20260506083503 | 7 | 8 | 6.4 | 16.1 | 0.25 | 1.98 | 0.94 | 65 | 1006.9 |
| 20260506083003 | 7 | 6 | 8.0 | 16.1 | 0.28 | 1.96 | 0.91 | 65 | 1007.1 |
| 20260506082503 | 7 | 6 | 6.4 | 16.1 | 0.36 | 1.96 | 0.91 | 65 | 1007.1 |
| 20260506082003 | 7 | 14 | 8.0 | 16.1 | 0.36 | 1.93 | 0.89 | 65 | 1007.2 |
| 20260506081713 | 7 | 13 | 8.0 | 16.1 | 0.43 | 1.93 | 0.89 | 65 | 1007.1 |
| 20260506081003 | 7 | 14 | 8.0 | 16.1 | 0.48 | 1.91 | 0.86 | 65 | 1007.2 |
| 20260506080503 | 7 | 6 | 6.4 | 16.1 | 0.48 | 1.88 | 0.84 | 65 | 1007.1 |
| 20260506073003 | 7 | 354 | 6.4 | 16.1 | 0.36 | 1.70 | 0.64 | 65 | 1007.0 |
| 20260506072503 | 7 | 334 | 6.4 | 16.1 | 0.28 | 1.63 | 0.56 | 65 | 1007.2 |
| 20260506072003 | 7 | 339 | 4.8 | 12.9 | 0.25 | 1.60 | 0.53 | 65 | 1007.2 |
| 20260506071503 | 7 | 19 | 3.2 | 8.0 | 0.18 | 1.50 | 0.43 | 65 | 1007.0 |
| 20260506071003 | 7 | 28 | 3.2 | 6.4 | 0.13 | 1.45 | 0.38 | 64 | 1006.7 |
| 20260506070503 | 7 | 17 | 3.2 | 6.4 | 0.13 | 1.42 | 0.36 | 64 | 1006.6 |
| 20260506062503 | 7 | 0 | 0.0 | 0.0 | 0.10 | 1.37 | 0.28 | 64 | 1006.8 |
| 20260506062213 | 7 | 0 | 0.0 | 0.0 | 0.13 | 1.37 | 0.28 | 64 | 1007.0 |
| 20260506061503 | 7 | 0 | 0.0 | 0.0 | 0.13 | 1.35 | 0.25 | 64 | 1007.2 |
| 20260506061003 | 7 | 0 | 0.0 | 0.0 | 0.15 | 1.35 | 0.25 | 64 | 1007.3 |
| 20260506060503 | 7 | 0 | 0.0 | 0.0 | 0.13 | 1.32 | 0.23 | 64 | 1007.4 |
| 20260506060213 | 7 | 105 | 0.0 | 4.8 | 0.13 | 1.32 | 0.23 | 64 | 1007.3 |
| 20260506051213 | 7 | 82 | 1.6 | 6.4 | 0.10 | 1.19 | 0.10 | 64 | 1008.5 |
| 20260506050714 | 7 | 54 | 1.6 | 4.8 | 0.10 | 1.19 | 0.10 | 64 | 1008.5 |
| 20260506050213 | 7 | 0 | 0.0 | 0.0 | 0.10 | 1.19 | 0.10 | 64 | 1008.8 |
| 20260506044714 | 7 | 136 | 1.6 | 6.4 | 0.03 | 1.12 | 0.03 | 64 | 1008.6 |
| 20260506044003 | 7 | 137 | 1.6 | 4.8 | 0.03 | 1.12 | 0.03 | 64 | 1008.8 |
| 20260506043503 | 7 | 165 | 3.2 | 8.0 | 0.00 | 1.09 | 0.00 | 63 | 1008.8 |
| 20260506043003 | 7 | 49 | 4.8 | 12.9 | 0.00 | 1.09 | 0.00 | 64 | 1009.5 |
| 20260506042503 | 7 | 21 | 4.8 | 12.9 | 0.00 | 1.09 | 0.00 | 64 | 1008.7 |
| 20260506042003 | 7 | 12 | 3.2 | 9.7 | 0.00 | 1.09 | 0.00 | 63 | 1008.9 |
| 20260506041503 | 7 | 16 | 3.2 | 11.3 | 0.00 | 1.12 | 0.00 | 63 | 1008.6 |
| 20260506041003 | 7 | 26 | 1.6 | 11.3 | 0.00 | 1.17 | 0.00 | 64 | 1008.1 |
| 20260506040503 | 7 | 27 | 0.0 | 8.0 | 0.00 | 1.19 | 0.00 | 63 | 1008.4 |
| 20260506040003 | 7 | 0 | 0.0 | 0.0 | 0.00 | 1.19 | 0.00 | 63 | 1008.5 |
| 20260506035503 | 7 | 0 | 0.0 | 0.0 | 0.00 | 1.19 | 1.19 | 63 | 1008.6 |
| 20260506035004 | 7 | 0 | 0.0 | 0.0 | 0.00 | 1.19 | 1.19 | 63 | 1008.8 |
| 20260506034503 | 7 | 0 | 0.0 | 0.0 | 0.00 | 1.19 | 1.19 | 63 | 1008.6 |
| 20260506034003 | 7 | 0 | 0.0 | 0.0 | 0.00 | 1.19 | 1.19 | 63 | 1008.6 |
| 20260506033503 | 7 | 17 | 1.6 | 4.8 | 0.03 | 1.19 | 1.19 | 63 | 1008.7 |
| 20260506033003 | 7 | 17 | 1.6 | 4.8 | 0.05 | 1.19 | 1.19 | 63 | 1008.7 |
| 20260506032503 | 7 | 10 | 3.2 | 6.4 | 0.08 | 1.19 | 1.19 | 63 | 1008.7 |
| 20260506032003 | 7 | 4 | 3.2 | 9.7 | 0.08 | 1.19 | 1.19 | 63 | 1008.8 |
| 20260506031503 | 7 | 358 | 3.2 | 9.7 | 0.10 | 1.19 | 1.19 | 62 | 1008.8 |
| 20260506031003 | 7 | 343 | 1.6 | 4.8 | 0.13 | 1.19 | 1.19 | 62 | 1008.9 |
| 20260506030503 | 7 | 345 | 3.2 | 8.0 | 0.18 | 1.19 | 1.19 | 62 | 1008.9 |
| 20260506030003 | 7 | 353 | 3.2 | 8.0 | 0.23 | 1.19 | 1.19 | 62 | 1008.8 |
| 20260506025713 | 7 | 359 | 3.2 | 8.0 | 0.25 | 1.19 | 1.19 | 62 | 1008.8 |
| 20260506025003 | 7 | 3 | 4.8 | 8.0 | 0.38 | 1.19 | 1.19 | 62 | 1008.9 |
| 20260506024503 | 7 | 2 | 3.2 | 8.0 | 0.41 | 1.19 | 1.19 | 62 | 1009.0 |
| 20260506024003 | 7 | 7 | 3.2 | 8.0 | 0.43 | 1.19 | 1.19 | 62 | 1009.2 |
| 20260506023503 | 7 | 358 | 4.8 | 8.0 | 0.41 | 1.17 | 1.17 | 61 | 1009.4 |
| 20260506023003 | 7 | 356 | 3.2 | 8.0 | 0.41 | 1.14 | 1.14 | 61 | 1009.0 |
| 20260506022503 | 7 | 359 | 3.2 | 11.3 | 0.38 | 1.12 | 1.12 | 60 | 1009.3 |
| 20260506022003 | 7 | 358 | 4.8 | 11.3 | 0.41 | 1.12 | 1.12 | 60 | 1009.2 |
| 20260506021503 | 7 | 359 | 6.4 | 16.1 | 0.41 | 1.09 | 1.09 | 59 | 1009.2 |
| 20260506021214 | 7 | 1 | 6.4 | 16.1 | 0.48 | 1.09 | 1.09 | 59 | 1009.3 |
| 20260506020712 | 7 | 353 | 6.4 | 16.1 | 0.58 | 1.04 | 1.04 | 59 | 1009.2 |
| 20260506020003 | 7 | 341 | 6.4 | 14.5 | 0.58 | 0.97 | 0.97 | 58 | 1009.5 |
| 20260506015503 | 7 | 350 | 6.4 | 14.5 | 0.58 | 0.94 | 0.94 | 57 | 1009.0 |
| 20260506015003 | 8 | 4 | 6.4 | 14.5 | 0.46 | 0.81 | 0.81 | 57 | 1009.2 |
| 20260506014503 | 8 | 15 | 4.8 | 14.5 | 0.43 | 0.79 | 0.79 | 57 | 1009.0 |
| 20260506014003 | 8 | 3 | 3.2 | 11.3 | 0.41 | 0.76 | 0.76 | 57 | 1008.8 |
| 20260506013712 | 8 | 343 | 3.2 | 9.7 | 0.41 | 0.76 | 0.76 | 57 | 1008.8 |
| 20260506013003 | 8 | 351 | 4.8 | 11.3 | 0.41 | 0.74 | 0.74 | 57 | 1008.9 |
| 20260506012503 | 8 | 4 | 3.2 | 11.3 | 0.46 | 0.74 | 0.74 | 57 | 1009.0 |
| 20260506012003 | 8 | 12 | 3.2 | 6.4 | 0.43 | 0.71 | 0.71 | 57 | 1008.9 |
| 20260506011503 | 8 | 20 | 1.6 | 4.8 | 0.43 | 0.69 | 0.69 | 56 | 1008.9 |
| 20260506011003 | 8 | 20 | 1.6 | 4.8 | 0.30 | 0.56 | 0.56 | 56 | 1008.9 |
| 20260506010503 | 8 | 15 | 1.6 | 4.8 | 0.18 | 0.43 | 0.43 | 57 | 1008.8 |
| 20260506010003 | 8 | 7 | 1.6 | 4.8 | 0.13 | 0.38 | 0.38 | 57 | 1008.7 |
| 20260506005503 | 8 | 7 | 1.6 | 6.4 | 0.10 | 0.36 | 0.36 | 57 | 1008.4 |
| 20260506005003 | 9 | 360 | 3.2 | 12.9 | 0.10 | 0.36 | 0.36 | 57 | 1008.5 |
| 20260506004714 | 9 | 8 | 4.8 | 12.9 | 0.10 | 0.36 | 0.36 | 56 | 1008.4 |
| 20260506004003 | 10 | 42 | 4.8 | 14.5 | 0.10 | 0.36 | 0.36 | 56 | 1008.4 |
| 20260506003503 | 10 | 35 | 1.6 | 14.5 | 0.10 | 0.36 | 0.36 | 57 | 1008.0 |
| 20260506003003 | 10 | 351 | 0.0 | 4.8 | 0.08 | 0.33 | 0.33 | 58 | 1008.4 |
| 20260506002503 | 10 | 279 | 1.6 | 6.4 | 0.03 | 0.28 | 0.28 | 58 | 1008.4 |
| 20260506002003 | 10 | 290 | 1.6 | 6.4 | 0.05 | 0.28 | 0.28 | 59 | 1008.2 |
| 20260506001503 | 10 | 309 | 1.6 | 6.4 | 0.03 | 0.25 | 0.25 | 59 | 1008.0 |
| 20260506001003 | 10 | 339 | 1.6 | 4.8 | 0.05 | 0.25 | 0.25 | 60 | 1007.9 |
| 20260506000503 | 10 | 347 | 3.2 | 6.4 | 0.05 | 0.25 | 0.25 | 60 | 1007.8 |
| 20260506000003 | 10 | 343 | 3.2 | 12.9 | 0.05 | 0.25 | 0.25 | 61 | 1007.8 |
| 20260505235503 | 11 | 343 | 6.4 | 19.3 | 0.05 | 0.25 | 0.25 | 61 | 1007.9 |
| 20260505235003 | 11 | 346 | 8.0 | 19.3 | 0.05 | 0.25 | 0.25 | 61 | 1007.7 |
| 20260505234503 | 11 | 349 | 6.4 | 17.7 | 0.05 | 0.25 | 0.25 | 61 | 1007.8 |
| 20260505234003 | 11 | 345 | 4.8 | 11.3 | 0.05 | 0.25 | 0.25 | 62 | 1007.7 |
| 20260505233503 | 11 | 309 | 3.2 | 12.9 | 0.05 | 0.25 | 0.25 | 62 | 1007.8 |
| 20260505233003 | 12 | 301 | 3.2 | 19.3 | 0.05 | 0.25 | 0.25 | 62 | 1007.8 |
| 20260505232714 | 12 | 292 | 4.8 | 20.9 | 0.05 | 0.25 | 0.25 | 62 | 1007.7 |
| 20260505232003 | 12 | 261 | 6.4 | 24.1 | 0.03 | 0.23 | 0.23 | 62 | 1007.5 |
| 20260505231503 | 13 | 257 | 9.7 | 24.1 | 0.03 | 0.23 | 0.23 | 62 | 1007.7 |
| 20260505231003 | 13 | 268 | 11.3 | 33.8 | 0.00 | 0.20 | 0.20 | 60 | 1007.4 |
| 20260505230503 | 13 | 277 | 11.3 | 33.8 | 0.00 | 0.20 | 0.20 | 59 | 1007.2 |
| 20260505230003 | 14 | 277 | 11.3 | 24.1 | 0.00 | 0.20 | 0.20 | 58 | 1007.1 |
| 20260505225503 | 14 | 273 | 9.7 | 24.1 | 0.00 | 0.20 | 0.20 | 58 | 1007.0 |
| 20260505225212 | 14 | 272 | 9.7 | 25.7 | 0.00 | 0.20 | 0.20 | 58 | 1007.0 |
| 20260505224503 | 15 | 267 | 9.7 | 25.7 | 0.00 | 0.20 | 0.20 | 57 | 1006.9 |
| 20260505224003 | 15 | 269 | 9.7 | 22.5 | 0.00 | 0.20 | 0.20 | 56 | 1006.7 |
| 20260505223503 | 15 | 268 | 9.7 | 24.1 | 0.00 | 0.20 | 0.20 | 55 | 1006.7 |
| 20260505223003 | 16 | 274 | 9.7 | 29.0 | 0.00 | 0.20 | 0.20 | 54 | 1006.6 |
| 20260505222503 | 16 | 307 | 8.0 | 29.0 | 0.00 | 0.20 | 0.20 | 54 | 1006.5 |
| 20260505222214 | 16 | 305 | 8.0 | 29.0 | 0.00 | 0.20 | 0.20 | 53 | 1006.5 |
| 20260505221503 | 16 | 268 | 4.8 | 20.9 | 0.00 | 0.20 | 0.20 | 54 | 1006.2 |
| 20260505221003 | 17 | 270 | 4.8 | 22.5 | 0.00 | 0.20 | 0.20 | 53 | 1006.0 |
| 20260505220503 | 17 | 277 | 8.0 | 22.5 | 0.00 | 0.20 | 0.20 | 53 | 1006.1 |
| 20260505220003 | 17 | 272 | 9.7 | 22.5 | 0.00 | 0.20 | 0.20 | 53 | 1006.0 |
| 20260505215503 | 17 | 271 | 6.4 | 22.5 | 0.00 | 0.20 | 0.20 | 52 | 1006.0 |
| 20260505215214 | 17 | 275 | 8.0 | 22.5 | 0.00 | 0.20 | 0.20 | 52 | 1005.9 |
| 20260505214503 | 17 | 273 | 6.4 | 22.5 | 0.00 | 0.20 | 0.20 | 51 | 1005.6 |
| 20260505214003 | 17 | 293 | 6.4 | 19.3 | 0.00 | 0.20 | 0.20 | 51 | 1005.6 |
| 20260505213503 | 18 | 290 | 8.0 | 27.4 | 0.00 | 0.20 | 0.20 | 51 | 1005.6 |
| 20260505213214 | 18 | 279 | 9.7 | 27.4 | 0.00 | 0.20 | 0.20 | 50 | 1005.5 |
| 20260505212713 | 18 | 275 | 9.7 | 27.4 | 0.00 | 0.20 | 0.20 | 49 | 1005.5 |
| 20260505212003 | 19 | 307 | 6.4 | 27.4 | 0.00 | 0.20 | 0.20 | 48 | 1005.3 |
| 20260505211503 | 19 | 329 | 4.8 | 16.1 | 0.00 | 0.20 | 0.20 | 48 | 1005.3 |
| 20260505211003 | 19 | 293 | 4.8 | 14.5 | 0.00 | 0.20 | 0.20 | 49 | 1005.1 |
| 20260505210503 | 19 | 255 | 4.8 | 14.5 | 0.00 | 0.20 | 0.20 | 47 | 1005.2 |
| 20260505210214 | 19 | 248 | 4.8 | 12.9 | 0.00 | 0.20 | 0.20 | 48 | 1005.3 |
| 20260505205503 | 19 | 249 | 6.4 | 19.3 | 0.00 | 0.20 | 0.20 | 48 | 1005.0 |
| 20260505205003 | 19 | 247 | 6.4 | 19.3 | 0.00 | 0.20 | 0.20 | 49 | 1004.9 |
| 20260505204503 | 19 | 244 | 6.4 | 19.3 | 0.00 | 0.20 | 0.20 | 49 | 1004.9 |
| 20260505204003 | 19 | 219 | 6.4 | 20.9 | 0.00 | 0.20 | 0.20 | 48 | 1004.9 |
| 20260505203503 | 19 | 190 | 6.4 | 20.9 | 0.00 | 0.20 | 0.20 | 48 | 1004.9 |
| 20260505203213 | 19 | 188 | 6.4 | 16.1 | 0.00 | 0.20 | 0.20 | 50 | 1004.9 |
| 20260505202503 | 19 | 179 | 6.4 | 20.9 | 0.03 | 0.20 | 0.20 | 50 | 1005.0 |
| 20260505202003 | 19 | 185 | 8.0 | 20.9 | 0.03 | 0.20 | 0.20 | 48 | 1005.1 |
| 20260505201503 | 19 | 201 | 6.4 | 17.7 | 0.03 | 0.20 | 0.20 | 50 | 1005.2 |
| 20260505201213 | 18 | 206 | 4.8 | 17.7 | 0.03 | 0.20 | 0.20 | 50 | 1005.3 |
| 20260505200503 | 18 | 203 | 6.4 | 19.3 | 0.03 | 0.20 | 0.20 | 51 | 1005.2 |
| 20260505200003 | 18 | 201 | 4.8 | 19.3 | 0.03 | 0.20 | 0.20 | 52 | 1005.2 |
| 20260505195503 | 18 | 218 | 3.2 | 19.3 | 0.03 | 0.20 | 0.20 | 51 | 1005.4 |
| 20260505195003 | 18 | 244 | 6.4 | 22.5 | 0.03 | 0.20 | 0.20 | 53 | 1005.3 |
| 20260505194503 | 18 | 243 | 6.4 | 22.5 | 0.03 | 0.20 | 0.20 | 52 | 1005.2 |
| 20260505194003 | 18 | 248 | 6.4 | 20.9 | 0.03 | 0.20 | 0.20 | 51 | 1005.3 |
| 20260505193714 | 18 | 256 | 8.0 | 20.9 | 0.03 | 0.20 | 0.20 | 50 | 1005.3 |
| 20260505193003 | 19 | 257 | 9.7 | 27.4 | 0.03 | 0.20 | 0.20 | 46 | 1005.1 |
| 20260505192503 | 20 | 253 | 8.0 | 19.3 | 0.00 | 0.18 | 0.18 | 43 | 1005.0 |
| 20260505192003 | 20 | 246 | 8.0 | 27.4 | 0.00 | 0.18 | 0.18 | 43 | 1005.0 |
| 20260505191503 | 20 | 254 | 8.0 | 30.6 | 0.00 | 0.18 | 0.18 | 43 | 1005.0 |
| 20260505191003 | 20 | 237 | 6.4 | 30.6 | 0.00 | 0.18 | 0.18 | 42 | 1004.9 |
| 20260505190503 | 21 | 206 | 8.0 | 17.7 | 0.00 | 0.18 | 0.18 | 42 | 1004.8 |
| 20260505190213 | 21 | 216 | 8.0 | 20.9 | 0.00 | 0.18 | 0.18 | 42 | 1004.8 |
| 20260505185503 | 21 | 208 | 6.4 | 20.9 | 0.00 | 0.18 | 0.18 | 42 | 1004.6 |
| 20260505185003 | 21 | 203 | 6.4 | 20.9 | 0.00 | 0.18 | 0.18 | 44 | 1004.6 |
| 20260505184503 | 21 | 203 | 8.0 | 22.5 | 0.00 | 0.18 | 0.18 | 48 | 1004.6 |
| 20260505184213 | 21 | 199 | 8.0 | 22.5 | 0.00 | 0.18 | 0.18 | 45 | 1004.6 |
| 20260505183714 | 21 | 198 | 8.0 | 22.5 | 0.00 | 0.18 | 0.18 | 45 | 1004.7 |
| 20260505183003 | 20 | 217 | 8.0 | 19.3 | 0.00 | 0.18 | 0.18 | 49 | 1004.9 |
| 20260505182503 | 20 | 218 | 8.0 | 27.4 | 0.00 | 0.18 | 0.18 | 47 | 1004.9 |
| 20260505182003 | 20 | 207 | 11.3 | 32.2 | 0.00 | 0.18 | 0.18 | 46 | 1004.9 |
| 20260505181503 | 20 | 190 | 12.9 | 32.2 | 0.00 | 0.18 | 0.18 | 47 | 1004.9 |
| 20260505181003 | 20 | 184 | 12.9 | 25.7 | 0.00 | 0.18 | 0.18 | 46 | 1004.9 |
| 20260505180503 | 20 | 183 | 11.3 | 29.0 | 0.00 | 0.18 | 0.18 | 52 | 1004.8 |
| 20260505180003 | 20 | 185 | 9.7 | 29.0 | 0.00 | 0.18 | 0.18 | 51 | 1004.7 |
| 20260505175503 | 19 | 191 | 11.3 | 25.7 | 0.00 | 0.18 | 0.18 | 50 | 1004.7 |
| 20260505175003 | 19 | 192 | 12.9 | 30.6 | 0.03 | 0.18 | 0.18 | 53 | 1004.6 |
| 20260505174503 | 18 | 178 | 12.9 | 30.6 | 0.03 | 0.18 | 0.18 | 52 | 1004.6 |
| 20260505174003 | 18 | 165 | 11.3 | 29.0 | 0.03 | 0.18 | 0.18 | 54 | 1004.7 |
| 20260505173713 | 18 | 152 | 11.3 | 27.4 | 0.03 | 0.18 | 0.18 | 57 | 1004.9 |
| 20260505173003 | 17 | 133 | 12.9 | 22.5 | 0.03 | 0.18 | 0.18 | 59 | 1004.8 |
| 20260505172503 | 16 | 150 | 11.3 | 22.5 | 0.03 | 0.18 | 0.18 | 59 | 1004.8 |
| 20260505172003 | 16 | 185 | 11.3 | 24.1 | 0.03 | 0.18 | 0.18 | 57 | 1005.0 |
| 20260505171503 | 16 | 196 | 11.3 | 24.1 | 0.03 | 0.18 | 0.18 | 57 | 1005.1 |
| 20260505171003 | 16 | 198 | 11.3 | 24.1 | 0.03 | 0.18 | 0.18 | 56 | 1005.1 |
| 20260505170503 | 16 | 210 | 12.9 | 30.6 | 0.03 | 0.18 | 0.18 | 55 | 1005.2 |
| 20260505170214 | 17 | 223 | 12.9 | 30.6 | 0.03 | 0.18 | 0.18 | 55 | 1005.1 |
| 20260505165713 | 17 | 236 | 14.5 | 32.2 | 0.03 | 0.18 | 0.18 | 53 | 1004.9 |
| 20260505165003 | 18 | 218 | 14.5 | 38.6 | 0.00 | 0.15 | 0.15 | 46 | 1004.7 |
| 20260505164503 | 20 | 205 | 16.1 | 43.5 | 0.00 | 0.15 | 0.15 | 43 | 1004.5 |
| 20260505164003 | 20 | 200 | 16.1 | 43.5 | 0.00 | 0.15 | 0.15 | 42 | 1004.5 |
| 20260505163713 | 20 | 198 | 16.1 | 43.5 | 0.00 | 0.15 | 0.15 | 41 | 1004.4 |
| 20260505163003 | 20 | 210 | 12.9 | 32.2 | 0.00 | 0.15 | 0.15 | 41 | 1004.4 |
| 20260505162713 | 20 | 220 | 11.3 | 25.7 | 0.00 | 0.15 | 0.15 | 42 | 1004.5 |
| 20260505162214 | 20 | 215 | 9.7 | 27.4 | 0.00 | 0.15 | 0.15 | 42 | 1004.6 |
| 20260505161503 | 20 | 205 | 16.1 | 38.6 | 0.00 | 0.15 | 0.15 | 41 | 1004.4 |
| 20260505161003 | 20 | 200 | 19.3 | 49.9 | 0.00 | 0.15 | 0.15 | 40 | 1004.4 |
| 20260505160503 | 20 | 198 | 19.3 | 49.9 | 0.00 | 0.15 | 0.15 | 39 | 1004.0 |
| 20260505153003 | 21 | 188 | 12.9 | 37.0 | 0.00 | 0.15 | 0.15 | 43 | 1003.6 |
| 20260505152503 | 21 | 196 | 12.9 | 27.4 | 0.00 | 0.15 | 0.15 | 44 | 1003.7 |
| 20260505152003 | 20 | 198 | 14.5 | 37.0 | 0.00 | 0.15 | 0.15 | 43 | 1003.8 |
| 20260505151712 | 20 | 197 | 17.7 | 37.0 | 0.00 | 0.15 | 0.15 | 42 | 1003.8 |